FW4509 Weather Reports


Display with metric or nautical units.
time (UTC)temp
F
wind
direction
speed
MPH
gust
MPH
rain 1hr
in
rain 24hr
in
rain mn
in
humidity
%
barometer
mb
20260504150741 71 180 2.0 4.0 0.00 0.00 0.00 58 1054.5
20260504140940 65 82 0.0 1.0 0.00 0.00 0.00 68 1055.3
20260504110255 57 175 0.0 2.0 0.00 0.00 0.00 82 1055.8
20260504100140 55 157 0.0 0.0 0.00 0.00 0.00 86 1056.3
20260504081141 59 47 2.0 3.0 0.00 0.00 0.00 72 1057.3
20260504080240 61 337 0.0 0.0 0.00 0.00 0.00 68 1057.2
20260504070240 60 306 6.0 10.0 0.00 0.00 0.00 66 1057.6
20260504060241 61 225 0.0 3.0 0.00 0.00 0.00 65 1055.7
20260504060139 61 212 2.0 3.0 0.00 0.00 0.00 65 1055.7
20260504050339 61 150 0.0 2.0 0.00 0.00 0.00 61 1055.8
20260504045352 60 177 2.0 5.0 0.00 0.00 0.00 60 1056.0
20260504044340 60 51 1.0 3.0 0.00 0.00 0.00 59 1056.2
20260504043437 60 92 0.0 2.0 0.00 0.00 0.00 58 1056.3
20260504043337 60 131 1.0 4.0 0.00 0.00 0.00 58 1056.3
20260504042340 61 183 0.0 2.0 0.00 0.00 0.00 58 1056.5
20260504042239 61 121 1.0 4.0 0.00 0.00 0.00 57 1056.5
20260504041238 60 164 1.0 4.0 0.00 0.00 0.00 57 1056.6
20260504041139 60 183 2.0 4.0 0.00 0.00 0.00 57 1056.7
20260504041055 60 148 2.0 3.0 0.00 0.00 0.00 58 1056.7
20260504040056 60 234 2.0 3.0 0.00 0.00 0.00 56 1056.6
20260504035154 60 219 1.0 2.0 0.00 0.00 0.00 55 1056.6
20260504035038 60 196 1.0 4.0 0.00 0.00 0.00 56 1056.7
20260504034038 60 180 2.0 6.0 0.00 0.00 0.00 55 1056.6
20260504033037 61 157 0.0 2.0 0.00 0.00 0.00 54 1056.5
20260504032040 61 163 2.0 4.0 0.00 0.00 0.00 55 1056.7
20260504031137 61 168 0.0 1.0 0.00 0.00 0.00 54 1056.9
20260504030138 61 156 1.0 2.0 0.00 0.00 0.00 53 1057.0
20260504025137 61 181 3.0 5.0 0.00 0.00 0.00 53 1057.0
20260504025039 61 165 2.0 4.0 0.00 0.00 0.00 52 1056.9
20260504024137 62 86 0.0 5.0 0.00 0.00 0.00 51 1057.1
20260504024040 62 116 1.0 2.0 0.00 0.00 0.00 52 1057.1
20260504023138 62 123 2.0 4.0 0.00 0.00 0.00 51 1057.3
20260504021237 62 176 1.0 4.0 0.00 0.00 0.00 51 1056.9
20260504021138 62 163 3.0 5.0 0.00 0.00 0.00 50 1056.9
20260504020037 62 74 1.0 5.0 0.00 0.00 0.00 50 1056.8
20260504015037 62 128 2.0 4.0 0.00 0.00 0.00 50 1056.8
20260504013039 62 139 1.0 2.0 0.00 0.00 0.00 49 1056.9
20260504012037 63 170 1.0 4.0 0.00 0.00 0.00 49 1057.0
20260504011040 63 115 2.0 4.0 0.00 0.00 0.00 47 1057.1
20260504010040 64 104 0.0 2.0 0.00 0.00 0.00 47 1057.1
20260504004039 65 157 0.0 1.0 0.00 0.00 0.00 45 1056.9
20260504002940 66 101 1.0 4.0 0.00 0.00 0.00 44 1057.2
20260504001937 67 183 0.0 2.0 0.00 0.00 0.00 43 1057.2
20260504001837 67 264 1.0 4.0 0.00 0.00 0.00 43 1057.3
20260504000838 68 67 0.0 1.0 0.00 0.00 0.00 41 1057.3
20260503235839 68 179 2.0 8.0 0.00 0.00 0.00 42 1057.2
20260503234838 68 128 1.0 4.0 0.00 0.00 0.00 41 1057.3
20260503233937 69 206 2.0 7.0 0.00 0.00 0.00 41 1057.3
20260503232937 69 219 3.0 7.0 0.00 0.00 0.00 40 1057.3
20260503231940 69 165 3.0 5.0 0.00 0.00 0.00 41 1057.3
20260503230939 69 158 2.0 5.0 0.00 0.00 0.00 40 1057.4
20260503225938 69 134 2.0 8.0 0.00 0.00 0.00 41 1057.2
20260503225839 69 248 3.0 7.0 0.00 0.00 0.00 40 1057.2
20260503225739 69 161 3.0 8.0 0.00 0.00 0.00 40 1057.2
20260503225637 69 158 1.0 6.0 0.00 0.00 0.00 40 1057.3
20260503224654 69 192 5.0 10.0 0.00 0.00 0.00 40 1057.2
20260503223738 69 274 1.0 3.0 0.00 0.00 0.00 41 1057.3
20260503221757 69 225 0.0 3.0 0.00 0.00 0.00 40 1057.5
20260503221637 69 192 4.0 11.0 0.00 0.00 0.00 41 1057.4
20260503215738 69 166 3.0 7.0 0.00 0.00 0.00 40 1057.5
20260503213736 68 54 2.0 6.0 0.00 0.00 0.00 41 1057.9
20260503213637 68 82 1.0 3.0 0.00 0.00 0.00 41 1057.9
20260503212639 68 174 2.0 6.0 0.00 0.00 0.00 42 1058.1
20260503211638 68 177 2.0 7.0 0.00 0.00 0.00 41 1058.5
20260503210639 68 186 4.0 12.0 0.00 0.00 0.00 41 1058.8
20260503204640 68 210 2.0 6.0 0.00 0.00 0.00 44 1059.4
20260503204537 68 297 3.0 7.0 0.00 0.00 0.00 43 1059.4
20260503203538 67 200 4.0 8.0 0.00 0.00 0.00 44 1059.5
20260503201637 67 173 4.0 8.0 0.00 0.00 0.00 45 1059.9
20260503195737 66 184 3.0 7.0 0.00 0.00 0.00 45 1060.6
20260503194752 65 244 2.0 4.0 0.00 0.00 0.00 46 1060.9
20260503193837 66 228 9.0 13.0 0.00 0.00 0.00 46 1061.2
20260503192840 66 173 4.0 9.0 0.00 0.00 0.00 47 1061.4
20260503191855 65 201 4.0 6.0 0.00 0.00 0.00 47 1061.7
20260503190937 65 206 4.0 9.0 0.00 0.00 0.00 47 1061.9
20260503185953 65 229 4.0 8.0 0.00 0.00 0.00 47 1062.1
20260503185038 65 173 3.0 8.0 0.00 0.00 0.00 49 1062.5
20260503184955 65 192 1.0 3.0 0.00 0.00 0.00 48 1062.4
20260503184040 64 228 3.0 6.0 0.00 0.00 0.00 49 1062.6
20260503183937 64 193 2.0 4.0 0.00 0.00 0.00 49 1062.7
20260503183854 64 224 3.0 5.0 0.00 0.00 0.00 49 1062.7
20260503181938 64 171 4.0 9.0 0.00 0.00 0.00 49 1063.4
20260503181839 64 230 7.0 9.0 0.00 0.00 0.00 49 1063.5
20260503180854 63 213 1.0 4.0 0.00 0.00 0.00 50 1063.6
20260503174939 62 228 4.0 6.0 0.00 0.00 0.00 50 1064.2
20260503174037 63 209 5.0 18.0 0.00 0.00 0.00 51 1064.2
20260503173054 62 208 4.0 16.0 0.00 0.00 0.00 53 1064.6
20260503172038 62 247 8.0 15.0 0.00 0.00 0.00 52 1064.6
20260503171039 61 98 1.0 2.0 0.00 0.00 0.00 52 1064.7
20260503170136 62 223 2.0 6.0 0.00 0.00 0.00 53 1064.8